Theta_e
348 348 347 348 348 349 349 350 350 348 348 347 347 345 341 343 341 339 344 344 345 347 345 344 344 342 345 346 345 344 345 344 344 346 345 344 343 343 342 343 343 344 344
349 350 349 348 348 349 349 350 350 347 348 347 347 346 343 342 343 341 345 345 346 347 346 343 344 346 343 346 347 346 346 345 347 346 346 345 344 343 342 342 343 344 344
339 350 350 349 349 349 349 350 350 349 347 348 348 347 345 344 344 343 343 344 346 347 346 345 344 346 344 344 345 345 346 346 345 344 346 344 344 343 342 342 342 344 344
339 340 350 349 350 351 351 352 352 350 348 348 349 347 347 345 343 343 345 347 346 346 348 347 343 343 344 345 345 345 344 344 346 345 343 343 343 342 341 341 341 341 342
346 346 349 348 350 350 351 351 352 352 351 350 350 349 347 347 345 344 346 348 347 346 347 347 346 346 345 344 342 344 345 346 346 346 343 342 342 343 343 342 340 341 341
345 347 348 349 350 351 352 352 351 351 352 352 350 350 349 347 347 345 346 348 348 347 346 347 346 346 346 346 346 343 343 344 344 344 343 343 341 342 340 339 338 338 339
340 343 348 349 350 351 353 353 352 352 352 353 352 349 350 348 345 344 344 346 347 346 345 345 346 345 345 346 347 345 342 343 344 344 341 340 339 340 338 342 342 342 341
333 336 341 347 350 351 352 353 352 351 350 353 353 352 350 347 346 344 342 342 343 345 341 345 345 345 346 347 347 346 344 342 341 340 341 341 343 342 341 341 340 342 341
334 333 335 337 345 348 350 351 351 351 348 346 343 348 351 351 347 345 344 343 341 340 344 346 347 347 347 347 345 346 347 346 343 343 343 343 341 341 341 339 339 340 342
330 334 336 334 334 333 333 337 341 343 347 348 343 338 344 350 350 347 345 346 345 347 348 349 347 346 346 347 346 346 346 345 344 343 344 342 340 339 340 341 343 343 343
334 337 331 336 338 337 333 334 335 333 333 337 333 335 351 351 350 351 348 345 344 346 349 348 347 347 345 344 344 343 345 344 344 343 342 341 339 338 342 342 341 341 342
339 339 338 339 339 341 341 341 341 336 336 334 335 338 339 343 341 348 350 349 347 348 350 349 346 348 347 346 346 344 344 343 341 341 340 339 339 340 342 341 341 341 339
335 339 339 339 340 341 341 341 344 339 335 335 341 335 338 341 334 336 344 347 347 347 347 350 348 348 348 345 346 346 344 343 341 342 339 337 340 336 340 341 342 341 339
331 336 337 338 339 341 339 339 341 345 340 347 343 343 337 331 332 333 336 335 335 342 347 346 346 346 346 343 344 344 340 340 342 341 341 342 341 338 338 339 340 341 341
337 338 337 338 339 342 341 339 340 346 346 343 345 330 332 335 331 331 335 335 338 339 339 340 343 344 343 341 344 343 341 342 343 342 341 340 342 341 341 341 340 340 340
339 339 337 338 338 337 340 337 339 338 345 345 348 347 344 343 342 338 341 337 337 337 340 339 339 338 332 334 343 344 342 342 343 343 342 342 343 342 342 342 340 340 338
337 336 338 340 338 340 339 336 334 338 338 336 339 339 337 338 340 342 341 339 338 340 343 339 334 337 334 342 344 343 342 343 343 344 344 343 343 343 341 341 341 341 340
335 336 337 339 339 338 339 339 339 338 339 338 337 336 335 337 337 338 339 340 341 341 342 338 335 335 333 334 340 341 342 341 341 341 342 342 343 343 343 342 341 340 339
334 335 335 336 337 337 337 336 337 339 339 339 339 339 340 340 339 338 335 336 338 338 338 338 337 337 336 335 340 341 340 340 341 341 340 341 342 343 344 344 343 343 341
333 332 331 330 333 333 334 333 333 334 336 335 337 338 338 337 339 335 334 335 335 335 336 338 336 336 340 339 337 339 337 340 339 339 342 342 341 341 342 341 340 338 338
330 329 325 323 324 328 330 331 331 331 330 329 332 331 333 336 337 337 338 338 337 336 337 337 337 337 339 336 334 334 338 337 336 335 335 334 339 338 339 339 339 339 340
327 327 327 327 326 325 323 323 325 328 328 329 329 327 327 328 330 334 337 336 337 337 337 337 336 336 339 340 337 337 337 337 335 335 335 336 338 338 336 339 338 335 335
328 329 327 327 327 327 326 322 323 326 326 327 328 328 330 328 328 328 328 331 334 336 336 336 337 337 337 337 337 337 337 337 336 335 335 335 335 336 336 336 335 334 334
328 327 327 326 326 326 324 324 320 321 324 325 325 326 325 327 330 330 329 328 328 327 326 327 328 329 331 333 335 335 335 334 335 336 336 336 337 337 336 337 337 336 335
328 326 326 325 326 325 326 325 323 320 320 323 324 324 323 324 324 323 324 329 329 327 327 327 327 327 328 328 327 327 327 327 327 327 328 329 331 333 335 337 337 339 338
326 325 324 325 325 326 324 323 323 320 316 323 324 324 324 323 322 322 324 326 329 326 327 328 327 326 327 327 326 325 323 323 324 324 325 325 327 327 329 332 334 336 336
Wind_Speed
50 40 40 44 44 46 47 45 44 43 41 39 40 38 38 35 32 32 29 26 26 25 23 25 24 25 26 25 24 23 22 21 18 18 18 21 20 21 22 21 21 21 21
34 38 42 47 50 49 48 47 47 45 45 42 38 38 37 36 34 33 32 29 27 24 25 24 26 26 28 27 26 26 24 23 21 22 23 24 26 29 28 25 25 24 23
24 40 44 53 53 54 52 52 49 47 46 44 40 38 37 36 36 37 34 32 30 28 27 24 24 26 28 28 27 26 27 24 21 23 21 10 17 18 21 25 27 26 27
14 32 46 48 49 41 38 40 47 48 46 45 45 42 42 44 43 41 38 34 33 30 29 27 25 25 27 31 30 28 28 27 25 24 26 28 16 8 7 12 15 21 25
18 4 23 24 30 33 37 39 40 43 44 45 45 43 41 42 42 42 38 35 33 31 31 30 27 26 26 28 31 32 31 30 28 25 27 27 30 29 27 23 24 20 18
17 7 11 20 20 20 25 31 38 40 41 42 44 45 44 42 43 42 41 37 35 34 33 31 30 28 29 29 31 31 32 31 31 30 30 28 27 29 27 32 33 32 29
9 8 8 18 23 22 23 30 33 36 37 35 42 44 44 45 42 42 42 41 39 36 35 33 33 31 30 29 30 32 30 32 31 29 28 27 30 31 31 29 26 27 28
4 2 6 10 19 26 29 30 31 27 26 34 26 42 45 44 45 41 41 39 37 38 34 30 29 30 31 29 30 34 34 31 29 29 29 28 27 26 27 28 27 30 32
10 6 13 7 11 15 24 31 37 35 29 19 14 26 49 50 45 41 39 38 33 32 29 27 30 29 29 29 28 31 33 33 30 27 27 28 27 26 28 29 29 30 27
7 7 8 13 14 17 13 18 25 29 37 47 27 28 54 52 47 38 37 37 36 30 27 26 25 24 26 27 25 27 27 29 30 28 26 27 26 24 25 25 24 25 28
9 9 12 11 12 14 14 16 19 24 27 47 46 44 37 36 39 39 37 33 36 36 33 31 28 26 24 23 22 24 23 25 26 27 27 27 23 21 19 18 18 17 18
12 11 11 13 15 17 22 26 26 23 14 10 13 17 22 18 6 25 35 32 34 37 34 31 31 29 27 27 26 25 24 25 25 24 24 23 20 19 18 16 16 15 15
12 10 12 15 17 17 15 13 11 11 20 12 13 9 20 9 24 20 14 23 31 35 38 38 35 33 29 27 29 26 25 25 23 21 21 21 19 20 18 16 17 17 14
14 11 12 15 18 14 8 9 10 5 8 26 21 28 12 12 10 3 23 30 32 36 39 30 33 33 30 24 24 23 22 22 21 20 20 20 19 17 17 16 15 15 16
11 11 11 15 16 13 6 4 10 11 21 13 32 13 9 11 19 14 17 18 21 26 30 26 36 34 25 21 22 21 23 21 22 20 21 20 20 17 15 15 14 15 16
10 7 6 8 10 12 6 5 8 10 19 29 16 14 10 7 14 20 17 22 26 31 27 28 31 39 30 23 26 27 26 24 22 21 21 19 19 19 19 19 16 14 16
8 4 1 1 3 5 6 5 5 7 7 8 6 4 3 0 4 5 10 19 29 33 30 25 25 28 31 26 28 29 28 27 25 24 23 21 21 19 18 18 20 19 19
3 2 5 5 1 4 7 8 7 7 9 7 7 5 3 4 5 8 13 18 24 27 26 24 25 29 30 24 29 28 25 25 27 27 23 23 23 22 20 19 20 19 21
2 5 9 9 6 10 11 7 9 9 8 10 9 6 5 2 1 3 4 7 9 12 15 13 18 19 24 26 25 20 20 29 27 24 22 24 25 24 23 23 22 21 22
11 10 11 10 8 10 9 10 9 6 6 6 7 7 9 7 6 5 7 8 6 9 9 12 16 17 20 22 20 22 25 25 25 23 23 25 26 25 26 24 24 24 21
11 11 13 15 13 10 9 11 12 14 13 10 7 7 7 8 8 6 4 4 7 9 8 6 8 13 18 20 23 23 20 17 21 26 27 22 25 25 26 26 26 27 24
14 14 16 15 16 17 14 13 12 10 10 8 11 13 14 13 12 5 5 5 3 5 7 10 12 11 8 13 23 25 27 23 24 22 23 24 27 27 25 31 31 25 24
14 12 12 12 14 14 15 14 13 7 7 8 9 8 9 10 12 11 8 8 6 3 2 3 2 6 12 13 15 17 19 22 25 30 32 30 31 32 33 32 33 37 39
8 9 9 11 12 14 15 18 15 11 5 5 5 5 4 5 5 6 6 10 10 9 9 6 4 4 7 9 10 11 13 15 17 19 21 20 24 32 38 36 37 39 41
8 8 8 11 8 9 10 11 15 15 11 6 8 7 4 4 7 6 4 3 5 6 6 7 7 7 6 4 7 10 13 15 19 22 24 28 31 33 32 33 32 30 31
6 6 8 10 8 9 11 12 15 17 14 6 9 9 7 7 7 5 5 1 3 2 2 4 6 7 6 8 11 13 16 18 19 20 20 22 23 27 34 36 33 29 29
Wind_Direction
233 219 218 223 221 217 214 216 215 212 208 209 211 212 212 212 213 213 211 210 211 219 219 219 218 216 216 214 216 220 221 225 222 231 238 241 245 248 247 249 244 246 246
234 222 217 221 226 221 219 216 217 215 211 210 211 215 213 215 216 213 215 212 217 223 221 220 219 221 222 222 224 227 228 233 235 237 244 252 257 257 254 249 250 247 248
251 225 215 221 226 224 221 219 217 216 215 214 212 214 216 219 217 215 215 217 219 223 224 227 223 222 223 226 228 232 229 232 237 239 236 236 245 262 265 257 252 256 251
327 229 217 215 221 219 223 225 224 220 218 218 217 214 215 215 218 218 217 218 219 223 226 231 230 229 230 231 233 234 236 236 238 243 242 240 245 249 261 259 256 255 257
24 122 206 209 213 219 225 224 226 226 226 227 228 223 221 223 223 223 222 222 222 226 230 230 234 235 236 244 242 238 238 240 247 246 246 241 245 250 257 265 261 260 258
49 67 166 178 195 212 220 217 220 227 229 231 229 234 233 227 225 225 223 224 225 228 230 235 236 241 243 250 247 244 243 244 248 250 245 244 247 250 256 262 269 270 271
41 89 159 182 187 183 190 199 207 215 223 236 234 232 238 239 233 228 225 225 226 228 233 236 239 242 247 253 248 246 248 245 244 247 245 249 253 255 262 263 268 270 273
17 39 141 173 199 196 195 195 200 200 206 212 251 247 239 239 240 234 230 231 232 233 233 234 239 244 249 252 249 246 245 245 249 250 252 255 253 252 252 257 265 271 274
3 328 258 223 198 220 218 218 215 212 209 210 244 272 249 244 238 240 235 232 233 227 228 233 244 245 245 248 246 242 245 249 251 249 252 250 253 254 259 260 260 259 264
332 4 312 281 272 262 257 238 239 239 236 225 265 272 266 244 240 239 241 237 232 231 231 235 236 240 243 246 247 241 244 246 247 248 249 248 251 258 258 257 258 254 256
336 347 298 305 306 285 268 285 296 284 256 230 241 255 237 225 235 234 239 240 237 239 242 242 245 243 237 235 239 238 238 240 243 245 247 246 248 250 250 255 251 251 250
333 320 312 317 313 301 300 303 291 294 220 223 206 259 103 141 119 208 224 230 234 236 241 235 235 238 240 241 241 241 239 237 238 240 242 239 239 243 243 252 259 260 261
318 323 328 322 322 304 315 322 327 274 228 228 206 223 273 252 321 282 234 242 245 248 242 240 237 235 234 241 239 238 244 234 231 239 243 236 238 240 243 250 262 262 259
293 317 317 313 309 310 331 8 0 253 208 201 204 172 199 132 133 188 244 254 260 255 235 236 244 237 236 231 234 241 233 228 232 239 241 242 243 241 242 244 256 263 263
302 300 322 315 323 319 292 30 59 143 168 167 174 187 203 173 186 203 220 223 233 239 233 243 249 240 226 221 230 240 233 231 233 240 242 239 245 244 244 245 244 251 263
295 268 307 317 335 310 324 44 85 99 170 183 214 262 260 272 257 243 253 227 244 234 242 247 240 220 218 217 238 237 239 234 235 236 241 241 245 246 247 250 244 247 248
281 245 7 351 338 28 44 52 71 71 85 91 99 65 53 55 215 236 227 237 243 239 255 250 235 218 211 233 244 237 240 238 240 244 244 248 252 253 255 254 252 249 250
308 109 61 54 134 101 101 87 74 58 70 93 90 86 134 169 205 230 240 241 239 243 246 233 237 243 238 242 243 238 239 240 242 240 241 246 250 253 254 254 256 257 253
108 94 73 63 70 85 89 90 84 89 93 93 89 93 102 92 60 261 242 216 211 226 205 228 240 235 233 246 247 247 241 241 239 243 244 248 254 251 247 252 253 258 262
108 83 53 50 59 72 86 78 87 121 118 94 71 57 59 62 68 134 134 139 175 189 257 235 228 227 226 227 227 242 248 248 258 254 253 255 257 255 247 246 256 259 259
76 74 72 68 59 48 52 75 80 74 71 82 81 63 61 64 63 66 93 156 174 212 233 238 249 228 223 230 229 239 238 246 248 256 247 262 262 256 252 251 259 266 274
88 84 84 77 68 56 48 50 53 62 64 82 81 82 75 73 78 75 94 112 152 237 260 258 251 251 247 233 225 231 235 252 260 261 262 257 257 255 252 249 247 255 268
106 98 83 73 54 46 42 41 43 52 55 61 73 94 92 93 86 78 73 85 74 56 47 346 310 256 247 247 253 246 254 261 257 255 257 259 264 267 262 260 263 265 259
99 79 69 50 46 39 38 39 37 32 29 39 47 53 69 96 96 80 62 77 79 67 50 37 8 306 285 283 278 272 270 275 273 272 274 272 262 259 261 264 264 267 267
108 70 44 26 37 43 31 33 32 32 30 56 61 48 48 66 60 53 24 125 83 31 27 35 27 19 8 345 322 307 298 290 287 283 278 273 268 265 263 263 265 266 265
119 65 19 27 37 23 14 18 20 16 16 42 41 38 54 49 32 343 4 92 142 60 9 1 8 7 348 336 330 329 327 318 308 296 285 283 281 274 266 262 263 261 260